QPF
0.01 0.02 0.02 0.03 0.03 0.02 0.02 0.01 0.01 0.01 0.01 0.01 0.01 0.01 0.01 0.03 0.03 0.02 0.03 0.02 0.02 0.02 0.01 0.01 0.02 0.03 0.04 0.03 0.03 0.03 0.03 0.04 0.04 0.06 0.15 0.15 0.08 0.04 0.05 0.05 0.04 0.03 0.02
0.01 0.01 0.02 0.03 0.03 0.02 0.02 0.01 0.02 0.01 0.01 0.01 0.01 0.01 0.01 0.02 0.03 0.03 0.03 0.04 0.04 0.02 0.02 0.01 0.02 0.03 0.03 0.02 0.03 0.03 0.03 0.04 0.05 0.08 0.20 0.14 0.04 0.02 0.03 0.04 0.04 0.02 0.02
0.01 0.01 0.02 0.02 0.03 0.03 0.03 0.02 0.02 0.01 0.01 0.01 0.01 0.01 0.01 0.01 0.02 0.03 0.04 0.05 0.06 0.05 0.03 0.02 0.01 0.01 0.02 0.03 0.03 0.03 0.04 0.04 0.07 0.10 0.17 0.09 0.02 0.01 0.02 0.03 0.03 0.03 0.02
0.00 0.01 0.02 0.03 0.03 0.03 0.04 0.04 0.03 0.02 0.01 0.01 0.01 0.01 0.02 0.02 0.03 0.03 0.03 0.03 0.05 0.06 0.05 0.03 0.02 0.01 0.01 0.02 0.03 0.04 0.05 0.05 0.07 0.08 0.11 0.06 0.02 0.01 0.02 0.02 0.02 0.03 0.03
0.00 0.01 0.01 0.01 0.02 0.03 0.05 0.06 0.05 0.03 0.03 0.02 0.02 0.02 0.02 0.02 0.03 0.03 0.03 0.02 0.03 0.04 0.04 0.04 0.02 0.01 0.02 0.02 0.03 0.03 0.05 0.06 0.06 0.05 0.06 0.06 0.02 0.02 0.02 0.01 0.02 0.02 0.02
0.00 0.00 0.00 0.01 0.01 0.02 0.04 0.06 0.04 0.03 0.02 0.02 0.02 0.03 0.03 0.03 0.03 0.03 0.03 0.02 0.02 0.03 0.03 0.03 0.02 0.02 0.02 0.03 0.04 0.05 0.06 0.05 0.04 0.04 0.05 0.05 0.03 0.02 0.02 0.02 0.02 0.02 0.02
0.00 0.00 0.00 0.01 0.01 0.01 0.01 0.03 0.03 0.03 0.02 0.02 0.02 0.02 0.03 0.04 0.04 0.04 0.03 0.02 0.02 0.02 0.03 0.03 0.02 0.02 0.03 0.03 0.04 0.05 0.05 0.05 0.04 0.04 0.05 0.04 0.04 0.02 0.02 0.02 0.02 0.02 0.02
0.00 0.00 0.00 0.00 0.00 0.01 0.01 0.01 0.01 0.02 0.03 0.03 0.02 0.02 0.02 0.03 0.05 0.04 0.04 0.03 0.03 0.03 0.03 0.03 0.02 0.02 0.02 0.02 0.03 0.04 0.04 0.03 0.03 0.03 0.04 0.05 0.04 0.03 0.02 0.02 0.01 0.02 0.02
0.01 0.00 0.00 0.00 0.01 0.01 0.01 0.01 0.01 0.01 0.01 0.02 0.02 0.02 0.02 0.02 0.04 0.04 0.04 0.04 0.05 0.05 0.05 0.05 0.03 0.01 0.01 0.02 0.03 0.03 0.03 0.03 0.02 0.02 0.03 0.05 0.05 0.04 0.03 0.02 0.01 0.02 0.03
0.01 0.01 0.01 0.01 0.02 0.01 0.01 0.00 0.00 0.00 0.00 0.01 0.01 0.02 0.02 0.02 0.03 0.04 0.05 0.05 0.06 0.05 0.05 0.08 0.07 0.05 0.03 0.02 0.02 0.02 0.02 0.03 0.02 0.02 0.02 0.03 0.05 0.03 0.03 0.02 0.02 0.03 0.03
0.01 0.02 0.03 0.02 0.01 0.00 0.00 0.01 0.01 0.01 0.01 0.01 0.01 0.02 0.03 0.03 0.03 0.03 0.05 0.05 0.05 0.06 0.05 0.06 0.08 0.08 0.06 0.03 0.02 0.01 0.01 0.02 0.02 0.02 0.02 0.02 0.04 0.05 0.04 0.03 0.02 0.02 0.03
0.01 0.02 0.02 0.01 0.00 0.00 0.01 0.01 0.01 0.01 0.01 0.01 0.01 0.01 0.02 0.02 0.02 0.03 0.05 0.07 0.06 0.06 0.06 0.06 0.06 0.06 0.06 0.04 0.02 0.01 0.01 0.02 0.02 0.03 0.03 0.03 0.03 0.04 0.05 0.06 0.04 0.03 0.03
0.01 0.01 0.01 0.00 0.00 0.00 0.00 0.01 0.01 0.01 0.01 0.01 0.01 0.01 0.01 0.02 0.02 0.03 0.04 0.06 0.07 0.06 0.05 0.05 0.05 0.04 0.05 0.05 0.03 0.02 0.02 0.02 0.02 0.02 0.03 0.03 0.03 0.03 0.03 0.05 0.06 0.06 0.05
0.01 0.00 0.00 0.00 0.00 0.01 0.01 0.01 0.01 0.01 0.01 0.01 0.01 0.01 0.01 0.01 0.01 0.01 0.02 0.04 0.06 0.06 0.05 0.04 0.05 0.04 0.04 0.06 0.05 0.04 0.04 0.03 0.03 0.03 0.04 0.04 0.05 0.04 0.04 0.04 0.05 0.06 0.07
0.00 0.00 0.00 0.00 0.01 0.01 0.01 0.01 0.02 0.02 0.01 0.01 0.01 0.01 0.01 0.01 0.01 0.01 0.01 0.02 0.04 0.06 0.05 0.04 0.04 0.05 0.04 0.05 0.07 0.06 0.05 0.05 0.06 0.05 0.05 0.06 0.06 0.05 0.06 0.06 0.06 0.06 0.06
0.00 0.00 0.01 0.01 0.01 0.01 0.01 0.01 0.03 0.02 0.02 0.02 0.01 0.01 0.01 0.01 0.01 0.01 0.01 0.01 0.02 0.04 0.05 0.05 0.05 0.05 0.05 0.05 0.07 0.09 0.07 0.06 0.06 0.05 0.06 0.07 0.06 0.06 0.06 0.06 0.07 0.07 0.06
0.01 0.01 0.01 0.00 0.01 0.01 0.01 0.01 0.01 0.01 0.01 0.01 0.01 0.01 0.01 0.01 0.01 0.01 0.01 0.01 0.02 0.04 0.06 0.07 0.05 0.05 0.06 0.05 0.05 0.07 0.08 0.07 0.05 0.05 0.05 0.06 0.07 0.07 0.08 0.07 0.07 0.09 0.10
0.01 0.01 0.01 0.00 0.00 0.01 0.02 0.02 0.01 0.01 0.01 0.01 0.02 0.01 0.01 0.01 0.01 0.01 0.01 0.01 0.02 0.03 0.05 0.07 0.06 0.05 0.05 0.06 0.05 0.05 0.06 0.07 0.07 0.05 0.05 0.06 0.07 0.07 0.07 0.07 0.07 0.08 0.10
0.01 0.01 0.00 0.00 0.01 0.02 0.02 0.02 0.01 0.01 0.01 0.01 0.01 0.01 0.01 0.01 0.01 0.01 0.01 0.02 0.02 0.02 0.03 0.05 0.06 0.05 0.04 0.05 0.06 0.05 0.06 0.07 0.07 0.06 0.05 0.05 0.06 0.06 0.06 0.06 0.06 0.06 0.07
0.00 0.00 0.00 0.00 0.01 0.02 0.02 0.02 0.01 0.01 0.01 0.01 0.01 0.01 0.00 0.00 0.01 0.01 0.01 0.02 0.02 0.02 0.02 0.03 0.04 0.05 0.05 0.04 0.04 0.05 0.05 0.05 0.05 0.06 0.06 0.06 0.06 0.06 0.06 0.06 0.05 0.05 0.05
0.00 0.00 0.01 0.01 0.01 0.02 0.02 0.02 0.01 0.01 0.01 0.01 0.01 0.01 0.01 0.01 0.01 0.01 0.01 0.01 0.01 0.02 0.02 0.03 0.03 0.04 0.04 0.04 0.04 0.04 0.04 0.03 0.04 0.04 0.05 0.06 0.06 0.07 0.07 0.06 0.06 0.05 0.04
0.00 0.00 0.01 0.01 0.01 0.02 0.02 0.01 0.01 0.01 0.02 0.02 0.01 0.01 0.01 0.01 0.01 0.01 0.01 0.01 0.01 0.01 0.02 0.02 0.02 0.03 0.03 0.04 0.04 0.03 0.03 0.03 0.03 0.04 0.05 0.05 0.05 0.06 0.07 0.07 0.07 0.05 0.04
0.01 0.01 0.01 0.02 0.02 0.02 0.01 0.01 0.01 0.01 0.01 0.02 0.02 0.02 0.01 0.01 0.01 0.02 0.01 0.01 0.01 0.01 0.01 0.01 0.01 0.02 0.02 0.02 0.03 0.03 0.04 0.04 0.04 0.04 0.04 0.05 0.05 0.05 0.05 0.06 0.06 0.05 0.05
0.01 0.01 0.01 0.01 0.01 0.02 0.01 0.01 0.01 0.01 0.01 0.02 0.02 0.02 0.02 0.02 0.02 0.02 0.02 0.02 0.01 0.01 0.01 0.01 0.01 0.01 0.01 0.02 0.02 0.03 0.03 0.04 0.03 0.03 0.03 0.04 0.05 0.04 0.04 0.05 0.05 0.04 0.04
0.03 0.03 0.03 0.02 0.01 0.01 0.01 0.01 0.01 0.01 0.01 0.02 0.02 0.02 0.02 0.02 0.02 0.02 0.02 0.02 0.01 0.01 0.01 0.01 0.01 0.01 0.01 0.01 0.01 0.02 0.03 0.03 0.03 0.03 0.02 0.03 0.03 0.04 0.04 0.04 0.04 0.04 0.04
0.03 0.03 0.02 0.02 0.02 0.01 0.01 0.02 0.02 0.01 0.01 0.01 0.01 0.01 0.02 0.02 0.02 0.02 0.02 0.02 0.02 0.01 0.01 0.01 0.01 0.01 0.01 0.01 0.01 0.01 0.02 0.02 0.03 0.03 0.02 0.02 0.02 0.02 0.02 0.03 0.03 0.03 0.04
MSLP
1007.24 1007.93 1008.61 1009.27 1009.87 1010.40 1010.88 1011.33 1011.77 1012.23 1012.71 1013.22 1013.74 1014.26 1014.73 1015.13 1015.47 1015.73 1015.93 1016.11 1016.29 1016.50 1016.75 1017.07 1017.41 1017.78 1018.12 1018.41 1018.61 1018.71 1018.68 1018.55 1018.32 1018.03 1017.71 1017.39 1017.08 1016.83 1016.62 1016.47 1016.38 1016.34 1016.35
1007.04 1007.68 1008.33 1008.96 1009.54 1010.08 1010.59 1011.08 1011.58 1012.11 1012.67 1013.25 1013.83 1014.40 1014.91 1015.35 1015.70 1015.98 1016.19 1016.36 1016.53 1016.73 1016.97 1017.26 1017.59 1017.94 1018.28 1018.56 1018.77 1018.88 1018.88 1018.79 1018.60 1018.34 1018.05 1017.74 1017.43 1017.15 1016.90 1016.68 1016.50 1016.37 1016.27
1006.87 1007.51 1008.14 1008.76 1009.35 1009.91 1010.45 1010.99 1011.54 1012.13 1012.74 1013.38 1014.01 1014.61 1015.15 1015.61 1015.99 1016.27 1016.50 1016.68 1016.86 1017.05 1017.28 1017.56 1017.87 1018.19 1018.51 1018.78 1018.98 1019.10 1019.12 1019.05 1018.90 1018.68 1018.42 1018.13 1017.84 1017.55 1017.26 1016.99 1016.74 1016.50 1016.29
1006.71 1007.36 1008.01 1008.65 1009.26 1009.86 1010.44 1011.02 1011.63 1012.26 1012.92 1013.59 1014.25 1014.87 1015.43 1015.90 1016.29 1016.59 1016.83 1017.03 1017.21 1017.41 1017.64 1017.90 1018.19 1018.49 1018.78 1019.03 1019.22 1019.33 1019.36 1019.31 1019.18 1019.00 1018.77 1018.51 1018.23 1017.94 1017.64 1017.33 1017.01 1016.69 1016.38
1006.51 1007.20 1007.90 1008.58 1009.24 1009.88 1010.51 1011.14 1011.79 1012.47 1013.15 1013.84 1014.51 1015.14 1015.70 1016.18 1016.57 1016.89 1017.14 1017.35 1017.55 1017.76 1017.99 1018.25 1018.53 1018.80 1019.07 1019.28 1019.45 1019.54 1019.56 1019.51 1019.39 1019.23 1019.03 1018.79 1018.53 1018.25 1017.94 1017.61 1017.25 1016.87 1016.47
1006.24 1006.99 1007.75 1008.49 1009.20 1009.90 1010.59 1011.27 1011.96 1012.67 1013.37 1014.07 1014.74 1015.36 1015.92 1016.40 1016.80 1017.13 1017.40 1017.63 1017.85 1018.08 1018.31 1018.57 1018.83 1019.08 1019.31 1019.50 1019.62 1019.69 1019.68 1019.62 1019.50 1019.34 1019.15 1018.93 1018.68 1018.41 1018.10 1017.76 1017.38 1016.97 1016.52
1005.90 1006.71 1007.52 1008.32 1009.10 1009.86 1010.60 1011.33 1012.06 1012.79 1013.51 1014.21 1014.88 1015.50 1016.05 1016.53 1016.94 1017.28 1017.57 1017.83 1018.07 1018.32 1018.56 1018.82 1019.06 1019.30 1019.49 1019.64 1019.73 1019.76 1019.72 1019.63 1019.49 1019.32 1019.12 1018.90 1018.66 1018.39 1018.09 1017.75 1017.37 1016.95 1016.49
1005.47 1006.33 1007.19 1008.05 1008.89 1009.70 1010.48 1011.26 1012.02 1012.77 1013.50 1014.21 1014.88 1015.50 1016.06 1016.55 1016.97 1017.33 1017.65 1017.94 1018.21 1018.47 1018.73 1018.98 1019.22 1019.43 1019.60 1019.71 1019.76 1019.75 1019.67 1019.54 1019.37 1019.17 1018.95 1018.71 1018.46 1018.19 1017.90 1017.57 1017.21 1016.80 1016.35
1005.00 1005.88 1006.78 1007.67 1008.54 1009.39 1010.22 1011.02 1011.81 1012.58 1013.33 1014.05 1014.73 1015.36 1015.93 1016.44 1016.89 1017.29 1017.64 1017.96 1018.26 1018.54 1018.81 1019.07 1019.30 1019.49 1019.63 1019.71 1019.73 1019.68 1019.56 1019.39 1019.18 1018.94 1018.68 1018.41 1018.14 1017.86 1017.57 1017.25 1016.91 1016.53 1016.12
1004.53 1005.40 1006.30 1007.20 1008.09 1008.96 1009.81 1010.64 1011.45 1012.24 1013.01 1013.75 1014.44 1015.10 1015.70 1016.24 1016.73 1017.17 1017.56 1017.92 1018.24 1018.55 1018.83 1019.09 1019.31 1019.49 1019.62 1019.67 1019.66 1019.58 1019.43 1019.22 1018.96 1018.68 1018.37 1018.06 1017.75 1017.45 1017.14 1016.83 1016.51 1016.16 1015.79
1004.09 1004.93 1005.80 1006.69 1007.58 1008.46 1009.32 1010.17 1010.99 1011.80 1012.59 1013.35 1014.07 1014.76 1015.40 1015.99 1016.52 1017.00 1017.43 1017.83 1018.18 1018.51 1018.80 1019.07 1019.29 1019.46 1019.57 1019.62 1019.59 1019.48 1019.30 1019.06 1018.77 1018.44 1018.08 1017.72 1017.36 1017.01 1016.67 1016.35 1016.03 1015.71 1015.39
1003.74 1004.52 1005.35 1006.21 1007.08 1007.95 1008.81 1009.66 1010.50 1011.32 1012.13 1012.92 1013.68 1014.40 1015.08 1015.71 1016.29 1016.82 1017.29 1017.72 1018.11 1018.45 1018.75 1019.02 1019.24 1019.41 1019.52 1019.56 1019.52 1019.40 1019.21 1018.95 1018.62 1018.24 1017.83 1017.41 1016.99 1016.58 1016.20 1015.84 1015.51 1015.20 1014.90
1003.49 1004.19 1004.96 1005.78 1006.63 1007.48 1008.34 1009.19 1010.04 1010.88 1011.70 1012.51 1013.30 1014.06 1014.78 1015.45 1016.07 1016.64 1017.16 1017.62 1018.02 1018.38 1018.70 1018.96 1019.19 1019.36 1019.47 1019.51 1019.47 1019.36 1019.16 1018.88 1018.52 1018.10 1017.64 1017.15 1016.66 1016.18 1015.73 1015.32 1014.95 1014.63 1014.33
1003.34 1003.96 1004.68 1005.45 1006.27 1007.11 1007.96 1008.81 1009.66 1010.51 1011.35 1012.18 1012.99 1013.77 1014.52 1015.23 1015.89 1016.49 1017.03 1017.51 1017.94 1018.31 1018.63 1018.91 1019.13 1019.30 1019.42 1019.47 1019.44 1019.33 1019.13 1018.84 1018.46 1018.01 1017.49 1016.94 1016.36 1015.80 1015.27 1014.78 1014.35 1013.98 1013.66
1003.25 1003.81 1004.47 1005.21 1006.00 1006.83 1007.67 1008.53 1009.38 1010.23 1011.08 1011.92 1012.74 1013.54 1014.31 1015.04 1015.71 1016.34 1016.91 1017.41 1017.85 1018.23 1018.56 1018.84 1019.07 1019.25 1019.37 1019.43 1019.41 1019.31 1019.11 1018.81 1018.41 1017.92 1017.35 1016.73 1016.07 1015.41 1014.78 1014.20 1013.69 1013.25 1012.88
1003.18 1003.69 1004.31 1005.02 1005.80 1006.62 1007.46 1008.31 1009.17 1010.02 1010.87 1011.71 1012.53 1013.33 1014.11 1014.85 1015.54 1016.18 1016.76 1017.28 1017.74 1018.13 1018.47 1018.75 1018.99 1019.18 1019.31 1019.37 1019.36 1019.27 1019.07 1018.76 1018.34 1017.82 1017.19 1016.49 1015.75 1015.00 1014.26 1013.57 1012.96 1012.43 1011.99
1003.08 1003.55 1004.15 1004.84 1005.61 1006.43 1007.27 1008.12 1008.98 1009.83 1010.67 1011.50 1012.31 1013.11 1013.89 1014.63 1015.33 1015.99 1016.58 1017.11 1017.59 1017.99 1018.35 1018.64 1018.89 1019.08 1019.22 1019.30 1019.29 1019.19 1018.99 1018.67 1018.23 1017.66 1016.98 1016.22 1015.39 1014.54 1013.70 1012.90 1012.18 1011.54 1011.02
1002.91 1003.37 1003.95 1004.63 1005.39 1006.20 1007.04 1007.89 1008.74 1009.58 1010.41 1011.23 1012.04 1012.83 1013.61 1014.35 1015.06 1015.73 1016.35 1016.90 1017.39 1017.82 1018.19 1018.51 1018.77 1018.97 1019.11 1019.19 1019.18 1019.08 1018.86 1018.52 1018.05 1017.45 1016.73 1015.90 1015.00 1014.06 1013.11 1012.21 1011.37 1010.63 1010.01
1002.67 1003.12 1003.68 1004.35 1005.10 1005.90 1006.72 1007.56 1008.40 1009.23 1010.05 1010.87 1011.67 1012.46 1013.23 1013.99 1014.71 1015.40 1016.04 1016.63 1017.15 1017.61 1018.01 1018.34 1018.62 1018.83 1018.98 1019.05 1019.04 1018.92 1018.69 1018.33 1017.83 1017.20 1016.43 1015.55 1014.58 1013.57 1012.54 1011.54 1010.60 1009.75 1009.03
1002.37 1002.80 1003.34 1003.99 1004.71 1005.49 1006.29 1007.11 1007.94 1008.75 1009.57 1010.38 1011.18 1011.98 1012.76 1013.54 1014.29 1015.01 1015.68 1016.30 1016.86 1017.36 1017.79 1018.15 1018.45 1018.67 1018.83 1018.89 1018.87 1018.74 1018.49 1018.10 1017.58 1016.92 1016.12 1015.20 1014.19 1013.12 1012.02 1010.94 1009.92 1008.98 1008.16
1002.03 1002.44 1002.95 1003.56 1004.24 1004.97 1005.74 1006.54 1007.34 1008.14 1008.95 1009.76 1010.58 1011.39 1012.21 1013.01 1013.80 1014.56 1015.28 1015.94 1016.55 1017.09 1017.55 1017.94 1018.26 1018.49 1018.65 1018.71 1018.67 1018.53 1018.26 1017.86 1017.32 1016.64 1015.82 1014.89 1013.85 1012.75 1011.62 1010.49 1009.41 1008.40 1007.50
1001.68 1002.05 1002.52 1003.07 1003.69 1004.37 1005.09 1005.85 1006.63 1007.42 1008.24 1009.07 1009.90 1010.75 1011.61 1012.46 1013.29 1014.10 1014.87 1015.58 1016.23 1016.80 1017.30 1017.72 1018.05 1018.29 1018.45 1018.51 1018.46 1018.30 1018.02 1017.61 1017.07 1016.39 1015.57 1014.64 1013.61 1012.51 1011.37 1010.22 1009.11 1008.06 1007.10
1001.34 1001.66 1002.06 1002.53 1003.08 1003.69 1004.37 1005.09 1005.85 1006.64 1007.47 1008.33 1009.21 1010.11 1011.01 1011.91 1012.80 1013.66 1014.47 1015.23 1015.92 1016.53 1017.05 1017.49 1017.83 1018.08 1018.24 1018.29 1018.23 1018.07 1017.79 1017.38 1016.84 1016.17 1015.38 1014.48 1013.48 1012.41 1011.30 1010.18 1009.08 1008.02 1007.04
1000.98 1001.24 1001.56 1001.96 1002.43 1002.98 1003.60 1004.29 1005.05 1005.86 1006.71 1007.62 1008.55 1009.51 1010.47 1011.44 1012.38 1013.28 1014.14 1014.93 1015.65 1016.28 1016.82 1017.26 1017.61 1017.86 1018.01 1018.06 1018.00 1017.84 1017.56 1017.16 1016.64 1016.01 1015.26 1014.41 1013.47 1012.47 1011.43 1010.36 1009.30 1008.28 1007.32
1000.58 1000.77 1001.02 1001.34 1001.75 1002.25 1002.84 1003.52 1004.28 1005.12 1006.03 1006.99 1007.99 1009.01 1010.05 1011.07 1012.06 1013.01 1013.90 1014.71 1015.44 1016.07 1016.62 1017.06 1017.40 1017.64 1017.79 1017.83 1017.77 1017.61 1017.34 1016.97 1016.48 1015.90 1015.21 1014.43 1013.58 1012.66 1011.71 1010.73 1009.76 1008.81 1007.90
1000.09 1000.23 1000.42 1000.69 1001.05 1001.52 1002.10 1002.79 1003.59 1004.48 1005.45 1006.49 1007.56 1008.67 1009.76 1010.84 1011.88 1012.86 1013.76 1014.58 1015.31 1015.94 1016.46 1016.89 1017.22 1017.45 1017.59 1017.62 1017.56 1017.41 1017.16 1016.81 1016.37 1015.83 1015.21 1014.52 1013.76 1012.95 1012.11 1011.25 1010.39 1009.54 1008.72
Thickness
5663 5661 5660 5658 5656 5655 5653 5651 5649 5648 5648 5646 5645 5643 5641 5639 5638 5636 5634 5633 5632 5630 5630 5628 5626 5625 5623 5622 5621 5620 5618 5616 5613 5616 5619 5621 5623 5625 5626 5627 5628 5629 5630
5659 5656 5654 5653 5651 5648 5646 5645 5643 5641 5640 5639 5638 5636 5634 5632 5631 5629 5628 5627 5625 5624 5623 5621 5620 5619 5617 5615 5614 5614 5612 5611 5609 5608 5611 5612 5614 5616 5617 5618 5619 5621 5621
5654 5651 5648 5646 5644 5642 5640 5638 5637 5635 5633 5632 5630 5628 5626 5624 5623 5622 5621 5620 5619 5617 5616 5615 5613 5612 5610 5608 5607 5606 5606 5606 5604 5603 5603 5605 5606 5607 5608 5608 5609 5610 5612
5648 5645 5642 5640 5638 5636 5634 5632 5629 5627 5625 5623 5621 5619 5618 5616 5615 5614 5613 5613 5611 5611 5610 5608 5607 5605 5604 5602 5601 5600 5599 5598 5597 5595 5595 5597 5597 5599 5599 5598 5598 5600 5602
5641 5638 5635 5634 5632 5629 5627 5624 5621 5618 5616 5615 5612 5611 5609 5607 5606 5604 5604 5605 5603 5603 5602 5601 5600 5599 5598 5596 5595 5592 5591 5589 5587 5587 5586 5587 5588 5588 5588 5588 5588 5589 5591
5634 5631 5629 5626 5624 5621 5618 5615 5613 5610 5607 5605 5603 5601 5599 5597 5596 5596 5595 5595 5595 5594 5594 5593 5592 5592 5590 5589 5587 5586 5584 5581 5579 5578 5577 5577 5578 5578 5579 5579 5578 5578 5579
5628 5624 5621 5618 5615 5613 5611 5607 5603 5601 5599 5595 5593 5592 5589 5587 5587 5588 5587 5587 5586 5585 5585 5585 5584 5583 5581 5579 5578 5577 5575 5574 5573 5571 5569 5568 5568 5569 5568 5568 5568 5567 5568
5620 5616 5614 5610 5607 5604 5601 5598 5595 5593 5590 5587 5585 5584 5582 5580 5580 5580 5580 5579 5578 5578 5577 5577 5575 5573 5572 5570 5569 5567 5565 5564 5563 5562 5561 5561 5561 5561 5560 5559 5559 5559 5560
5612 5608 5606 5603 5599 5596 5593 5590 5588 5584 5581 5579 5577 5576 5574 5572 5572 5571 5571 5570 5569 5569 5569 5568 5567 5565 5564 5562 5560 5557 5555 5555 5555 5554 5554 5554 5554 5553 5552 5551 5549 5549 5550
5605 5602 5599 5596 5592 5588 5586 5583 5580 5577 5574 5572 5570 5568 5566 5564 5564 5563 5561 5560 5560 5560 5559 5559 5557 5555 5554 5553 5550 5548 5546 5546 5546 5545 5545 5544 5544 5544 5543 5542 5541 5540 5541
5598 5595 5591 5588 5584 5581 5578 5575 5572 5569 5566 5563 5561 5560 5558 5556 5555 5553 5552 5550 5550 5549 5548 5547 5546 5545 5545 5544 5542 5540 5539 5539 5538 5536 5535 5535 5535 5535 5535 5535 5534 5534 5534
5591 5587 5583 5580 5577 5574 5569 5566 5563 5560 5557 5554 5552 5550 5548 5547 5546 5544 5543 5542 5541 5539 5538 5537 5536 5536 5536 5535 5534 5534 5533 5531 5529 5528 5526 5526 5525 5525 5526 5526 5527 5527 5527
5583 5579 5575 5572 5568 5565 5561 5557 5554 5551 5548 5545 5543 5540 5538 5537 5536 5535 5534 5532 5531 5530 5529 5529 5528 5528 5527 5526 5526 5526 5525 5522 5520 5518 5517 5517 5517 5517 5517 5517 5518 5518 5519
5574 5570 5567 5563 5559 5556 5553 5550 5546 5542 5539 5537 5534 5531 5529 5527 5525 5524 5522 5521 5521 5520 5520 5520 5520 5520 5518 5518 5517 5517 5516 5514 5512 5510 5509 5509 5509 5508 5507 5507 5507 5507 5508
5565 5561 5557 5554 5551 5547 5544 5540 5537 5534 5531 5528 5525 5522 5520 5518 5516 5515 5513 5512 5511 5511 5510 5510 5509 5509 5508 5507 5507 5507 5506 5505 5504 5502 5501 5500 5500 5499 5499 5499 5499 5498 5498
5555 5551 5547 5544 5541 5537 5533 5529 5527 5524 5522 5519 5517 5514 5512 5510 5508 5506 5505 5504 5503 5502 5501 5499 5499 5498 5498 5497 5496 5496 5496 5495 5494 5493 5492 5491 5490 5490 5490 5490 5490 5489 5489
5546 5542 5538 5535 5531 5528 5524 5520 5516 5513 5512 5509 5507 5505 5502 5500 5498 5497 5495 5494 5494 5493 5491 5489 5488 5488 5487 5486 5485 5485 5485 5484 5484 5483 5483 5482 5481 5481 5481 5481 5480 5480 5481
5536 5532 5529 5525 5521 5518 5515 5512 5508 5505 5501 5498 5497 5495 5493 5490 5488 5487 5485 5484 5483 5481 5479 5478 5478 5477 5476 5475 5474 5474 5474 5473 5473 5473 5473 5473 5472 5472 5472 5472 5472 5472 5473
5525 5522 5518 5515 5512 5509 5505 5502 5500 5496 5493 5489 5486 5484 5482 5480 5478 5476 5475 5473 5472 5471 5469 5467 5466 5466 5465 5464 5464 5463 5463 5463 5463 5463 5463 5463 5463 5463 5463 5463 5463 5465 5465
5514 5512 5508 5505 5502 5499 5496 5493 5489 5486 5483 5480 5477 5474 5471 5469 5467 5466 5464 5463 5462 5460 5459 5458 5456 5455 5454 5454 5454 5453 5453 5453 5453 5454 5454 5454 5454 5454 5455 5455 5455 5457 5458
5502 5500 5498 5495 5491 5489 5486 5483 5480 5476 5473 5470 5467 5465 5463 5460 5458 5456 5455 5453 5452 5450 5449 5448 5446 5445 5444 5444 5444 5444 5443 5443 5443 5444 5445 5445 5446 5446 5447 5447 5448 5449 5451
5492 5489 5487 5484 5481 5479 5476 5473 5470 5467 5464 5461 5458 5456 5454 5451 5449 5447 5446 5444 5443 5441 5440 5439 5437 5436 5435 5435 5435 5435 5435 5435 5436 5436 5437 5438 5438 5439 5439 5440 5441 5442 5443
5482 5479 5476 5473 5471 5469 5466 5463 5460 5457 5455 5452 5449 5446 5444 5442 5440 5438 5436 5435 5434 5432 5431 5430 5429 5428 5428 5428 5428 5428 5428 5428 5429 5429 5430 5431 5432 5432 5433 5434 5435 5435 5437
5471 5468 5465 5463 5461 5459 5456 5453 5451 5448 5446 5444 5441 5438 5435 5433 5431 5429 5427 5426 5425 5424 5423 5422 5422 5421 5421 5420 5421 5420 5421 5421 5422 5422 5423 5424 5425 5426 5427 5428 5429 5430 5431
5460 5457 5455 5453 5451 5449 5447 5444 5442 5439 5437 5435 5432 5429 5426 5424 5422 5420 5419 5417 5416 5415 5415 5414 5414 5414 5414 5414 5414 5414 5414 5415 5415 5416 5417 5418 5419 5420 5421 5422 5423 5424 5425
5449 5447 5445 5443 5441 5440 5438 5435 5433 5430 5428 5426 5423 5420 5418 5415 5413 5412 5410 5409 5408 5407 5407 5407 5407 5407 5407 5407 5408 5408 5409 5409 5410 5411 5411 5412 5413 5415 5416 5416 5417 5418 5420